User: anonymous   Login
Location: Budapest
(47.4979°N, 19.0402°E)
Time: 22:01:11
(UTC+02:00)
Language:

STARLINK-1320 - Orbit

View from above orbital plane
View from above orbital plane
View from above satellite
View from above satellite

Ground track
Ground track

The orbit data is extracted from the following two-line orbital elements,

1 45572U 20025AT  21261.56753615 -.00000744  00000-0 -31040-4 0  9991
2 45572  53.0545 208.0004 0001562  72.0899 288.0260 15.06389746 79360
Epoch (UTC): 18 September 2021 13:37:15
Eccentricity: 0.0001562
inclination: 53.0545°
perigee height: 546 km
apogee height: 548 km
right ascension of ascending node: 208.0004°
argument of perigee: 72.0899°
revolutions per day: 15.06389746
mean anomaly at epoch: 288.0260°
orbit number at epoch: 7936

The dashed part of the orbit path shows where the satellite is in the earth's shadow,  

DLR